Time,TemperatureF,DewpointF,PressureIn,WindDirection,WindDirectionDegrees,WindSpeedMPH,WindSpeedGustMPH,Humidity,HourlyPrecipIn,Conditions,Clouds,dailyrainin,SoftwareType,DateUTC
2013-07-11 00:00:00,68.7,68.1,29.42,SSW,204,0.0,0.0,98,0.00,,,0.24,Wunderground v.1.15,2013-07-11 04:00:00,
2013-07-11 00:05:00,68.6,68.0,29.41,SSW,204,0.0,0.0,98,0.00,,,0.00,Wunderground v.1.15,2013-07-11 04:05:00,
2013-07-11 00:10:00,68.5,67.9,29.41,SSW,204,0.0,0.0,98,0.00,,,0.00,Wunderground v.1.15,2013-07-11 04:10:00,
2013-07-11 00:15:00,68.6,68.0,29.41,SSW,204,0.0,0.0,98,0.00,,,0.00,Wunderground v.1.15,2013-07-11 04:15:00,
2013-07-11 00:25:00,68.5,67.9,29.41,SSW,204,0.0,0.0,98,0.00,,,0.00,Wunderground v.1.15,2013-07-11 04:25:00,
2013-07-11 00:30:00,68.5,67.9,29.41,SSW,204,0.0,0.0,98,0.00,,,0.00,Wunderground v.1.15,2013-07-11 04:30:00,
2013-07-11 00:40:00,68.6,68.0,29.41,SSW,204,0.0,0.0,98,0.00,,,0.00,Wunderground v.1.15,2013-07-11 04:40:00,
2013-07-11 00:50:00,68.8,68.2,29.41,SSW,204,0.0,0.0,98,0.00,,,0.00,Wunderground v.1.15,2013-07-11 04:50:00,
2013-07-11 00:55:00,68.8,68.2,29.40,SSW,204,0.0,0.0,98,0.00,,,0.00,Wunderground v.1.15,2013-07-11 04:55:00,
2013-07-11 01:00:00,68.9,68.3,29.41,SSW,204,0.0,0.0,98,0.00,,,0.00,Wunderground v.1.15,2013-07-11 05:00:00,
2013-07-11 01:05:00,68.9,68.3,29.41,SSW,204,0.0,0.0,98,0.00,,,0.00,Wunderground v.1.15,2013-07-11 05:05:00,
2013-07-11 01:10:00,68.8,68.2,29.41,SSW,204,0.0,0.0,98,0.00,,,0.00,Wunderground v.1.15,2013-07-11 05:10:00,
2013-07-11 01:15:00,68.8,68.2,29.41,SSW,204,0.0,0.0,98,0.00,,,0.00,Wunderground v.1.15,2013-07-11 05:15:00,
2013-07-11 01:25:00,68.8,68.2,29.41,SSW,204,0.0,0.0,98,0.00,,,0.00,Wunderground v.1.15,2013-07-11 05:25:00,
2013-07-11 01:30:00,68.8,68.2,29.41,SSW,204,0.0,0.0,98,0.00,,,0.00,Wunderground v.1.15,2013-07-11 05:30:00,
2013-07-11 01:35:00,68.9,68.3,29.41,SSW,204,0.0,1.0,98,0.00,,,0.00,Wunderground v.1.15,2013-07-11 05:35:00,
2013-07-11 01:40:00,68.9,68.3,29.41,SSW,204,0.0,0.0,98,0.00,,,0.00,Wunderground v.1.15,2013-07-11 05:40:00,
2013-07-11 01:45:00,68.9,68.3,29.41,SSW,204,0.0,0.0,98,0.00,,,0.00,Wunderground v.1.15,2013-07-11 05:45:00,
2013-07-11 01:50:00,68.8,68.2,29.40,SSW,204,0.0,0.0,98,0.00,,,0.00,Wunderground v.1.15,2013-07-11 05:50:00,
2013-07-11 01:55:00,68.8,68.2,29.40,SSW,204,0.0,0.0,98,0.00,,,0.00,Wunderground v.1.15,2013-07-11 05:55:00,
2013-07-11 02:00:00,68.7,68.1,29.39,SSW,204,0.0,2.0,98,0.00,,,0.00,Wunderground v.1.15,2013-07-11 06:00:00,
2013-07-11 02:10:00,68.7,68.1,29.40,SSW,204,1.0,1.0,98,0.00,,,0.00,Wunderground v.1.15,2013-07-11 06:10:00,
2013-07-11 02:20:00,68.7,68.1,29.39,SSW,204,1.0,1.0,98,0.00,,,0.00,Wunderground v.1.15,2013-07-11 06:20:00,
2013-07-11 02:25:00,68.7,68.1,29.39,SSW,204,1.0,1.0,98,0.00,,,0.00,Wunderground v.1.15,2013-07-11 06:25:00,
2013-07-11 02:35:00,68.7,68.1,29.39,SSW,203,0.0,1.0,98,0.00,,,0.00,Wunderground v.1.15,2013-07-11 06:35:00,
2013-07-11 02:40:00,68.7,68.1,29.39,SSW,203,0.0,0.0,98,0.00,,,0.00,Wunderground v.1.15,2013-07-11 06:40:00,
2013-07-11 02:50:00,68.6,68.0,29.40,SSW,203,0.0,0.0,98,0.00,,,0.00,Wunderground v.1.15,2013-07-11 06:50:00,
2013-07-11 02:55:00,68.6,68.0,29.40,SSW,203,0.0,0.0,98,0.00,,,0.00,Wunderground v.1.15,2013-07-11 06:55:00,
2013-07-11 03:00:00,68.6,68.0,29.40,SSW,205,0.0,0.0,98,0.00,,,0.00,Wunderground v.1.15,2013-07-11 07:00:00,
2013-07-11 03:10:00,68.6,68.0,29.41,SSW,205,0.0,0.0,98,0.00,,,0.00,Wunderground v.1.15,2013-07-11 07:10:00,
2013-07-11 03:20:00,68.7,68.1,29.41,ESE,107,0.0,0.0,98,0.00,,,0.00,Wunderground v.1.15,2013-07-11 07:20:00,
2013-07-11 03:25:00,68.6,68.0,29.41,ESE,107,0.0,0.0,98,0.00,,,0.00,Wunderground v.1.15,2013-07-11 07:25:00,
2013-07-11 03:35:00,68.1,67.5,29.42,NE,41,2.0,5.0,98,0.00,,,0.00,Wunderground v.1.15,2013-07-11 07:35:00,
2013-07-11 03:40:00,67.7,67.1,29.42,NE,47,4.0,4.0,98,0.00,,,0.00,Wunderground v.1.15,2013-07-11 07:40:00,
2013-07-11 03:50:00,67.3,66.7,29.42,NE,37,3.0,3.0,98,0.00,,,0.00,Wunderground v.1.15,2013-07-11 07:50:00,
2013-07-11 04:00:00,67.0,66.1,29.42,ESE,121,1.0,1.0,97,0.46,,,0.05,Wunderground v.1.15,2013-07-11 08:00:00,
2013-07-11 04:10:00,66.7,65.8,29.42,North,5,1.0,1.0,97,0.05,,,0.05,Wunderground v.1.15,2013-07-11 08:10:00,
2013-07-11 04:20:00,66.4,65.5,29.42,North,5,0.0,0.0,97,0.00,,,0.05,Wunderground v.1.15,2013-07-11 08:20:00,
2013-07-11 04:25:00,66.3,65.4,29.42,North,5,0.0,0.0,97,0.00,,,0.05,Wunderground v.1.15,2013-07-11 08:25:00,
2013-07-11 04:30:00,66.3,65.4,29.42,North,5,0.0,0.0,97,0.00,,,0.05,Wunderground v.1.15,2013-07-11 08:30:00,
2013-07-11 04:35:00,66.2,65.3,29.43,North,5,0.0,0.0,97,0.00,,,0.05,Wunderground v.1.15,2013-07-11 08:35:00,
2013-07-11 04:45:00,66.1,65.2,29.43,North,5,0.0,1.0,97,0.00,,,0.05,Wunderground v.1.15,2013-07-11 08:45:00,
2013-07-11 04:50:00,66.1,65.2,29.43,North,5,0.0,0.0,97,0.00,,,0.05,Wunderground v.1.15,2013-07-11 08:50:00,
2013-07-11 04:55:00,66.0,65.1,29.43,North,5,0.0,0.0,97,0.00,,,0.05,Wunderground v.1.15,2013-07-11 08:55:00,
2013-07-11 05:05:00,66.0,65.4,29.43,North,5,0.0,2.0,98,0.00,,,0.05,Wunderground v.1.15,2013-07-11 09:05:00,
2013-07-11 05:10:00,65.9,65.0,29.43,North,5,0.0,0.0,97,0.00,,,0.05,Wunderground v.1.15,2013-07-11 09:10:00,
2013-07-11 05:15:00,65.8,64.9,29.44,North,5,0.0,0.0,97,0.00,,,0.05,Wunderground v.1.15,2013-07-11 09:15:00,
2013-07-11 05:25:00,65.8,64.9,29.45,North,5,0.0,0.0,97,0.00,,,0.05,Wunderground v.1.15,2013-07-11 09:25:00,
2013-07-11 05:30:00,65.8,64.9,29.44,North,5,0.0,0.0,97,0.00,,,0.05,Wunderground v.1.15,2013-07-11 09:30:00,
2013-07-11 05:35:00,65.7,64.8,29.43,North,5,0.0,0.0,97,0.00,,,0.05,Wunderground v.1.15,2013-07-11 09:35:00,
2013-07-11 05:40:00,65.6,64.7,29.43,North,5,0.0,0.0,97,0.00,,,0.05,Wunderground v.1.15,2013-07-11 09:40:00,
2013-07-11 05:45:00,65.5,64.6,29.43,North,5,0.0,0.0,97,0.00,,,0.05,Wunderground v.1.15,2013-07-11 09:45:00,
2013-07-11 05:50:00,65.4,64.8,29.44,North,5,0.0,1.0,98,0.00,,,0.05,Wunderground v.1.15,2013-07-11 09:50:00,
2013-07-11 05:55:00,65.4,64.8,29.44,North,5,0.0,1.0,98,0.00,,,0.05,Wunderground v.1.15,2013-07-11 09:55:00,
2013-07-11 06:00:00,65.5,64.9,29.43,North,5,0.0,0.0,98,0.00,,,0.05,Wunderground v.1.15,2013-07-11 10:00:00,
2013-07-11 06:10:00,65.4,64.8,29.43,North,5,0.0,0.0,98,0.00,,,0.05,Wunderground v.1.15,2013-07-11 10:10:00,
2013-07-11 06:15:00,65.4,64.8,29.44,North,5,0.0,0.0,98,0.00,,,0.05,Wunderground v.1.15,2013-07-11 10:15:00,
2013-07-11 06:20:00,65.4,64.8,29.44,North,5,0.0,0.0,98,0.00,,,0.06,Wunderground v.1.15,2013-07-11 10:20:00,
2013-07-11 06:30:00,65.5,64.9,29.45,West,274,2.0,2.0,98,0.00,,,0.06,Wunderground v.1.15,2013-07-11 10:30:00,
2013-07-11 06:40:00,65.7,65.1,29.45,West,274,0.0,0.0,98,0.00,,,0.06,Wunderground v.1.15,2013-07-11 10:40:00,
2013-07-11 06:45:00,65.7,65.1,29.45,West,274,0.0,0.0,98,0.00,,,0.06,Wunderground v.1.15,2013-07-11 10:45:00,
2013-07-11 06:55:00,65.9,65.3,29.45,West,273,1.0,1.0,98,0.00,,,0.06,Wunderground v.1.15,2013-07-11 10:55:00,
2013-07-11 07:00:00,66.1,65.5,29.46,West,273,1.0,1.0,98,0.00,,,0.06,Wunderground v.1.15,2013-07-11 11:00:00,
2013-07-11 07:10:00,66.1,65.5,29.46,West,273,0.0,0.0,98,0.00,,,0.06,Wunderground v.1.15,2013-07-11 11:10:00,
2013-07-11 07:20:00,66.2,65.6,29.47,West,273,0.0,0.0,98,0.00,,,0.06,Wunderground v.1.15,2013-07-11 11:20:00,
2013-07-11 07:25:00,66.3,65.7,29.47,West,273,0.0,1.0,98,0.00,,,0.06,Wunderground v.1.15,2013-07-11 11:25:00,
2013-07-11 07:30:00,66.2,65.6,29.48,West,273,0.0,0.0,98,0.00,,,0.06,Wunderground v.1.15,2013-07-11 11:30:00,
2013-07-11 07:40:00,66.3,65.7,29.47,West,273,0.0,1.0,98,0.00,,,0.06,Wunderground v.1.15,2013-07-11 11:40:00,
2013-07-11 07:50:00,66.4,65.8,29.48,NNE,26,0.0,0.0,98,0.00,,,0.06,Wunderground v.1.15,2013-07-11 11:50:00,
2013-07-11 08:00:00,66.4,65.8,29.48,NNE,26,0.0,0.0,98,0.00,,,0.06,Wunderground v.1.15,2013-07-11 12:00:00,
2013-07-11 08:05:00,66.4,65.8,29.48,NNE,26,0.0,0.0,98,0.00,,,0.06,Wunderground v.1.15,2013-07-11 12:05:00,
2013-07-11 08:15:00,66.6,66.0,29.47,NNE,26,0.0,0.0,98,0.00,,,0.06,Wunderground v.1.15,2013-07-11 12:15:00,
2013-07-11 08:20:00,66.6,66.0,29.47,NNE,26,0.0,0.0,98,0.00,,,0.07,Wunderground v.1.15,2013-07-11 12:20:00,
2013-07-11 08:30:00,67.0,66.4,29.47,NNE,26,0.0,0.0,98,0.00,,,0.07,Wunderground v.1.15,2013-07-11 12:30:00,
2013-07-11 08:40:00,67.5,66.9,29.47,NNE,26,0.0,0.0,98,0.00,,,0.07,Wunderground v.1.15,2013-07-11 12:40:00,
2013-07-11 08:50:00,67.6,66.7,29.48,NNE,26,0.0,0.0,97,0.00,,,0.07,Wunderground v.1.15,2013-07-11 12:50:00,
2013-07-11 08:55:00,67.8,66.9,29.48,NNE,26,0.0,0.0,97,0.00,,,0.07,Wunderground v.1.15,2013-07-11 12:55:00,
2013-07-11 09:00:00,67.9,67.0,29.48,SSW,213,0.0,2.0,97,0.00,,,0.07,Wunderground v.1.15,2013-07-11 13:00:00,
2013-07-11 09:05:00,68.1,66.9,29.48,SSW,213,0.0,2.0,96,0.00,,,0.07,Wunderground v.1.15,2013-07-11 13:05:00,
2013-07-11 09:10:00,68.3,67.1,29.49,SW,218,0.0,0.0,96,0.00,,,0.07,Wunderground v.1.15,2013-07-11 13:10:00,
2013-07-11 09:20:00,68.7,66.9,29.49,SW,220,0.0,1.0,94,0.00,,,0.07,Wunderground v.1.15,2013-07-11 13:20:00,
2013-07-11 09:30:00,69.3,66.9,29.50,WNW,302,0.0,1.0,92,0.00,,,0.07,Wunderground v.1.15,2013-07-11 13:30:00,
2013-07-11 09:40:00,69.5,65.8,29.50,WSW,253,2.0,2.0,88,0.00,,,0.07,Wunderground v.1.15,2013-07-11 13:40:00,
2013-07-11 09:50:00,70.2,66.8,29.49,NNE,16,1.0,4.0,89,0.00,,,0.07,Wunderground v.1.15,2013-07-11 13:50:00,
2013-07-11 09:55:00,71.0,67.6,29.49,NE,53,1.0,4.0,89,0.00,,,0.07,Wunderground v.1.15,2013-07-11 13:55:00,
2013-07-11 10:05:00,72.2,66.7,29.49,WNW,294,1.0,3.0,83,0.00,,,0.07,Wunderground v.1.15,2013-07-11 14:05:00,
2013-07-11 10:10:00,73.0,68.6,29.49,NE,50,2.0,4.0,86,0.00,,,0.07,Wunderground v.1.15,2013-07-11 14:10:00,
2013-07-11 10:20:00,74.0,68.9,29.48,NNE,23,2.0,2.0,84,0.00,,,0.07,Wunderground v.1.15,2013-07-11 14:20:00,
2013-07-11 10:25:00,74.0,67.4,29.49,WNW,287,2.0,4.0,80,0.00,,,0.07,Wunderground v.1.15,2013-07-11 14:25:00,
2013-07-11 10:50:00,72.5,66.3,29.49,WNW,294,1.0,3.0,81,0.00,,,0.07,Wunderground v.1.15,2013-07-11 14:50:00,
2013-07-11 10:55:00,72.3,65.1,29.49,NNW,345,2.0,3.0,78,0.00,,,0.07,Wunderground v.1.15,2013-07-11 14:55:00,
2013-07-11 11:00:00,72.3,65.4,29.49,North,360,2.0,2.0,79,0.00,,,0.07,Wunderground v.1.15,2013-07-11 15:00:00,
2013-07-11 11:10:00,72.1,65.6,29.49,West,261,2.0,2.0,80,0.00,,,0.07,Wunderground v.1.15,2013-07-11 15:10:00,
2013-07-11 11:20:00,71.2,65.4,29.50,NW,321,2.0,2.0,82,0.00,,,0.07,Wunderground v.1.15,2013-07-11 15:20:00,
2013-07-11 11:35:00,70.3,64.2,29.50,NNW,332,2.0,2.0,81,0.00,,,0.07,Wunderground v.1.15,2013-07-11 15:35:00,
2013-07-11 11:40:00,70.2,63.7,29.50,NNW,327,2.0,2.0,80,0.00,,,0.07,Wunderground v.1.15,2013-07-11 15:40:00,
2013-07-11 11:50:00,70.6,65.2,29.50,NNW,336,1.0,1.0,83,0.00,,,0.07,Wunderground v.1.15,2013-07-11 15:50:00,
2013-07-11 12:00:00,71.0,64.2,29.50,NNW,328,2.0,5.0,79,0.00,,,0.07,Wunderground v.1.15,2013-07-11 16:00:00,
2013-07-11 12:15:00,70.9,64.1,29.50,NNW,327,3.0,5.0,79,0.00,,,0.07,Wunderground v.1.15,2013-07-11 16:15:00,
2013-07-11 12:20:00,71.5,64.6,29.50,WNW,296,2.0,2.0,79,0.00,,,0.07,Wunderground v.1.15,2013-07-11 16:20:00,
2013-07-11 12:25:00,72.4,64.8,29.50,WNW,286,2.0,2.0,77,0.00,,,0.07,Wunderground v.1.15,2013-07-11 16:25:00,
2013-07-11 12:30:00,72.7,63.1,29.50,NNW,329,2.0,3.0,72,0.00,,,0.07,Wunderground v.1.15,2013-07-11 16:30:00,
2013-07-11 12:40:00,72.6,63.8,29.51,WNW,292,2.0,3.0,74,0.00,,,0.07,Wunderground v.1.15,2013-07-11 16:40:00,
2013-07-11 12:50:00,72.9,63.7,29.51,WNW,282,4.0,6.0,73,0.00,,,0.07,Wunderground v.1.15,2013-07-11 16:50:00,
2013-07-11 13:00:00,73.5,63.1,29.51,WNW,287,4.0,4.0,70,0.00,,,0.07,Wunderground v.1.15,2013-07-11 17:00:00,
2013-07-11 13:05:00,73.5,62.3,29.51,NNW,346,5.0,5.0,68,0.00,,,0.07,Wunderground v.1.15,2013-07-11 17:05:00,
2013-07-11 13:10:00,74.1,63.3,29.51,North,355,4.0,4.0,69,0.00,,,0.07,Wunderground v.1.15,2013-07-11 17:10:00,
2013-07-11 13:15:00,74.3,63.9,29.51,North,351,4.0,4.0,70,0.00,,,0.07,Wunderground v.1.15,2013-07-11 17:15:00,
2013-07-11 13:20:00,74.1,63.3,29.51,WNW,298,4.0,5.0,69,0.00,,,0.07,Wunderground v.1.15,2013-07-11 17:20:00,
2013-07-11 13:25:00,73.8,62.2,29.51,NNW,336,3.0,7.0,67,0.00,,,0.07,Wunderground v.1.15,2013-07-11 17:25:00,
2013-07-11 13:40:00,73.5,61.9,29.51,NNW,348,5.0,5.0,67,0.00,,,0.07,Wunderground v.1.15,2013-07-11 17:40:00,
2013-07-11 13:50:00,73.8,63.4,29.51,North,360,4.0,4.0,70,0.00,,,0.07,Wunderground v.1.15,2013-07-11 17:50:00,
2013-07-11 14:05:00,75.9,64.2,29.51,West,277,4.0,5.0,67,0.00,,,0.07,Wunderground v.1.15,2013-07-11 18:05:00,
2013-07-11 14:25:00,76.3,63.2,29.51,NW,308,5.0,6.0,64,0.00,,,0.07,Wunderground v.1.15,2013-07-11 18:25:00,
2013-07-11 14:30:00,76.6,61.7,29.51,WNW,299,5.0,5.0,60,0.00,,,0.07,Wunderground v.1.15,2013-07-11 18:30:00,
2013-07-11 14:40:00,76.5,61.6,29.52,WNW,288,5.0,5.0,60,0.00,,,0.07,Wunderground v.1.15,2013-07-11 18:40:00,
2013-07-11 14:50:00,77.1,63.5,29.52,NW,315,4.0,4.0,63,0.00,,,0.07,Wunderground v.1.15,2013-07-11 18:50:00,
2013-07-11 14:55:00,76.9,62.9,29.52,NNW,344,4.0,4.0,62,0.00,,,0.07,Wunderground v.1.15,2013-07-11 18:55:00,
2013-07-11 15:00:00,76.7,62.7,29.52,NW,320,5.0,5.0,62,0.00,,,0.07,Wunderground v.1.15,2013-07-11 19:00:00,
2013-07-11 15:05:00,76.7,63.2,29.52,NW,314,5.0,5.0,63,0.00,,,0.07,Wunderground v.1.15,2013-07-11 19:05:00,
2013-07-11 15:10:00,76.4,62.4,29.52,NNE,18,5.0,6.0,62,0.00,,,0.07,Wunderground v.1.15,2013-07-11 19:10:00,
2013-07-11 15:20:00,76.1,61.7,29.52,WNW,297,6.0,6.0,61,0.00,,,0.07,Wunderground v.1.15,2013-07-11 19:20:00,
2013-07-11 15:30:00,77.0,61.1,29.52,WSW,255,4.0,7.0,58,0.00,,,0.07,Wunderground v.1.15,2013-07-11 19:30:00,
2013-07-11 15:40:00,76.7,62.7,29.52,NNE,13,4.0,11.0,62,0.00,,,0.07,Wunderground v.1.15,2013-07-11 19:40:00,
2013-07-11 15:50:00,77.1,64.4,29.52,NNE,19,5.0,5.0,65,0.00,,,0.07,Wunderground v.1.15,2013-07-11 19:50:00,
2013-07-11 15:55:00,77.7,65.0,29.52,NW,309,3.0,5.0,65,0.00,,,0.07,Wunderground v.1.15,2013-07-11 19:55:00,
2013-07-11 16:00:00,78.1,64.0,29.52,West,275,4.0,4.0,62,0.00,,,0.07,Wunderground v.1.15,2013-07-11 20:00:00,
2013-07-11 16:10:00,76.8,61.4,29.52,NW,311,6.0,7.0,59,0.00,,,0.07,Wunderground v.1.15,2013-07-11 20:10:00,
2013-07-11 16:15:00,76.3,62.8,29.52,NNE,32,6.0,7.0,63,0.00,,,0.07,Wunderground v.1.15,2013-07-11 20:15:00,
2013-07-11 16:20:00,76.4,62.9,29.52,North,360,6.0,6.0,63,0.00,,,0.07,Wunderground v.1.15,2013-07-11 20:20:00,
2013-07-11 16:25:00,76.3,61.9,29.52,NNW,340,7.0,7.0,61,0.00,,,0.07,Wunderground v.1.15,2013-07-11 20:25:00,
2013-07-11 16:30:00,76.1,63.0,29.52,NE,34,7.0,7.0,64,0.00,,,0.07,Wunderground v.1.15,2013-07-11 20:30:00,
2013-07-11 16:35:00,76.2,61.8,29.52,NNW,328,7.0,9.0,61,0.00,,,0.07,Wunderground v.1.15,2013-07-11 20:35:00,
2013-07-11 16:45:00,76.4,61.5,29.52,NNW,344,6.0,8.0,60,0.00,,,0.07,Wunderground v.1.15,2013-07-11 20:45:00,
2013-07-11 16:50:00,76.5,62.5,29.52,NNW,331,5.0,5.0,62,0.00,,,0.07,Wunderground v.1.15,2013-07-11 20:50:00,
2013-07-11 17:05:00,74.0,61.0,29.54,NNW,348,6.0,7.0,64,0.00,,,0.07,Wunderground v.1.15,2013-07-11 21:05:00,
2013-07-11 17:25:00,71.9,61.2,29.55,North,5,4.0,8.0,69,0.00,,,0.07,Wunderground v.1.15,2013-07-11 21:25:00,
2013-07-11 17:30:00,72.5,62.2,29.55,NW,317,4.0,5.0,70,0.00,,,0.07,Wunderground v.1.15,2013-07-11 21:30:00,
2013-07-11 17:45:00,72.6,61.8,29.55,NW,325,6.0,8.0,69,0.00,,,0.07,Wunderground v.1.15,2013-07-11 21:45:00,
2013-07-11 17:50:00,72.9,62.5,29.55,NNE,13,5.0,5.0,70,0.00,,,0.07,Wunderground v.1.15,2013-07-11 21:50:00,
2013-07-11 17:55:00,73.0,62.6,29.55,NNE,22,5.0,5.0,70,0.00,,,0.07,Wunderground v.1.15,2013-07-11 21:55:00,
2013-07-11 18:00:00,73.1,62.7,29.55,NNE,16,4.0,6.0,70,0.00,,,0.07,Wunderground v.1.15,2013-07-11 22:00:00,
2013-07-11 18:10:00,72.8,61.2,29.55,North,5,6.0,6.0,67,0.00,,,0.07,Wunderground v.1.15,2013-07-11 22:10:00,
2013-07-11 18:15:00,72.7,61.1,29.56,North,360,6.0,6.0,67,0.00,,,0.07,Wunderground v.1.15,2013-07-11 22:15:00,
2013-07-11 18:20:00,72.5,60.9,29.56,North,360,6.0,6.0,67,0.00,,,0.07,Wunderground v.1.15,2013-07-11 22:20:00,
2013-07-11 18:30:00,72.3,59.4,29.56,NE,46,6.0,6.0,64,0.00,,,0.07,Wunderground v.1.15,2013-07-11 22:30:00,
2013-07-11 18:35:00,72.1,59.2,29.57,North,5,7.0,7.0,64,0.00,,,0.07,Wunderground v.1.15,2013-07-11 22:35:00,
2013-07-11 18:45:00,71.7,58.9,29.57,North,355,7.0,7.0,64,0.00,,,0.07,Wunderground v.1.15,2013-07-11 22:45:00,
2013-07-11 18:55:00,71.9,58.6,29.57,North,11,4.0,5.0,63,0.00,,,0.07,Wunderground v.1.15,2013-07-11 22:55:00,
2013-07-11 19:05:00,71.9,57.3,29.58,NNW,339,5.0,6.0,60,0.00,,,0.07,Wunderground v.1.15,2013-07-11 23:05:00,
2013-07-11 19:10:00,71.8,57.2,29.58,NW,312,5.0,5.0,60,0.00,,,0.07,Wunderground v.1.15,2013-07-11 23:10:00,
2013-07-11 19:15:00,71.6,57.9,29.58,NNW,344,4.0,5.0,62,0.00,,,0.07,Wunderground v.1.15,2013-07-11 23:15:00,
2013-07-11 19:20:00,71.3,56.7,29.58,NNE,17,4.0,4.0,60,0.00,,,0.07,Wunderground v.1.15,2013-07-11 23:20:00,
2013-07-11 19:25:00,70.7,57.5,29.59,NW,312,4.0,4.0,63,0.00,,,0.07,Wunderground v.1.15,2013-07-11 23:25:00,
2013-07-11 19:30:00,69.9,57.2,29.59,NW,325,3.0,3.0,64,0.00,,,0.07,Wunderground v.1.15,2013-07-11 23:30:00,
2013-07-11 19:40:00,69.3,57.0,29.60,NNW,334,2.0,2.0,65,0.00,,,0.07,Wunderground v.1.15,2013-07-11 23:40:00,
2013-07-11 19:55:00,68.3,57.3,29.60,NW,309,1.0,2.0,68,0.00,,,0.07,Wunderground v.1.15,2013-07-11 23:55:00,
2013-07-11 20:00:00,68.0,57.8,29.61,NNW,346,1.0,1.0,70,0.00,,,0.07,Wunderground v.1.15,2013-07-12 00:00:00,
2013-07-11 20:10:00,67.2,57.9,29.61,NNW,345,1.0,1.0,72,0.00,,,0.07,Wunderground v.1.15,2013-07-12 00:10:00,
2013-07-11 20:20:00,66.6,57.7,29.61,NNW,345,0.0,1.0,73,0.00,,,0.07,Wunderground v.1.15,2013-07-12 00:20:00,
2013-07-11 20:30:00,65.8,57.7,29.61,NW,325,1.0,2.0,75,0.00,,,0.07,Wunderground v.1.15,2013-07-12 00:30:00,
2013-07-11 20:40:00,65.2,57.1,29.61,NW,305,1.0,1.0,75,0.00,,,0.07,Wunderground v.1.15,2013-07-12 00:40:00,
2013-07-11 21:00:00,63.7,58.1,29.62,NNE,21,1.0,2.0,82,0.00,,,0.07,Wunderground v.1.15,2013-07-12 01:00:00,
2013-07-11 21:10:00,62.2,57.3,29.63,NNE,18,1.0,2.0,84,0.00,,,0.07,Wunderground v.1.15,2013-07-12 01:10:00,
2013-07-11 21:20:00,62.0,57.1,29.63,NNW,348,0.0,0.0,84,0.00,,,0.07,Wunderground v.1.15,2013-07-12 01:20:00,
2013-07-11 21:30:00,62.6,56.7,29.63,WNW,292,0.0,0.0,81,0.00,,,0.07,Wunderground v.1.15,2013-07-12 01:30:00,
2013-07-11 21:40:00,63.0,56.7,29.63,WNW,299,0.0,1.0,80,0.00,,,0.07,Wunderground v.1.15,2013-07-12 01:40:00,
2013-07-11 21:55:00,62.8,56.5,29.64,NNW,333,0.0,2.0,80,0.00,,,0.07,Wunderground v.1.15,2013-07-12 01:55:00,
2013-07-11 22:05:00,62.8,56.5,29.64,NW,326,0.0,0.0,80,0.00,,,0.07,Wunderground v.1.15,2013-07-12 02:05:00,
2013-07-11 22:15:00,62.5,56.9,29.65,NW,325,0.0,0.0,82,0.00,,,0.07,Wunderground v.1.15,2013-07-12 02:15:00,
2013-07-11 22:20:00,62.0,56.4,29.65,NW,326,0.0,0.0,82,0.00,,,0.07,Wunderground v.1.15,2013-07-12 02:20:00,
2013-07-11 22:30:00,61.5,56.6,29.65,NW,326,0.0,0.0,84,0.00,,,0.07,Wunderground v.1.15,2013-07-12 02:30:00,
2013-07-11 22:40:00,61.1,56.6,29.65,NW,325,0.0,0.0,85,0.00,,,0.07,Wunderground v.1.15,2013-07-12 02:40:00,
2013-07-11 22:50:00,60.6,56.1,29.66,NW,325,0.0,0.0,85,0.00,,,0.07,Wunderground v.1.15,2013-07-12 02:50:00,
2013-07-11 23:00:00,60.5,56.3,29.66,NW,326,0.0,0.0,86,0.00,,,0.07,Wunderground v.1.15,2013-07-12 03:00:00,
2013-07-11 23:15:00,60.0,56.1,29.67,NNE,17,1.0,1.0,87,0.00,,,0.07,Wunderground v.1.15,2013-07-12 03:15:00,
2013-07-11 23:30:00,59.8,55.9,29.67,North,355,1.0,1.0,87,0.00,,,0.07,Wunderground v.1.15,2013-07-12 03:30:00,
2013-07-11 23:35:00,59.8,55.9,29.67,North,350,1.0,2.0,87,0.00,,,0.07,Wunderground v.1.15,2013-07-12 03:35:00,
2013-07-11 23:45:00,59.9,56.0,29.67,NNW,342,1.0,1.0,87,0.00,,,0.07,Wunderground v.1.15,2013-07-12 03:45:00,
2013-07-11 23:50:00,60.2,56.0,29.67,North,9,1.0,1.0,86,0.00,,,0.07,Wunderground v.1.15,2013-07-12 03:50:00,